Hourly Data Report for October 21, 2014

All times are specified in Local Standard Time (LST). Add 1 hour to adjust for Daylight Saving Time where and when it is observed.

OTTAWA INTL A
ONTARIO

45°19'00.000" N
75°40'00.000" W
114.90 m
6106001
71628
YOW

Download Data

Hourly Data (October 2014)
Hourly Data Report for October 21, 2014
Temp Definition
°C
Dew Point Temp Definition
°C
Rel Hum Definition
%
Wind Dir Definition
10's deg

Wind Spd Definition
km/h
Visibility Definition
km
Stn Press Definition
kPa
Hmdx Definition


Wind Chill Definition


Weather Definition


TIME
00:00 Legend Double Dagger 4.6 4.3 98 6 18 12.9 99.86     Rain
01:00 Legend Double Dagger 4.5 4.2 98 5 16 12.9 99.86     Rain
02:00 Legend Double Dagger 4.4 4.0 97 6 19 11.3 99.85     Rain
03:00 Legend Double Dagger 4.4 4.0 97 6 22 9.7 99.86     Rain,Fog
04:00 Legend Double Dagger 4.5 4.1 97 7 23 16.1 99.88     Rain
05:00 Legend Double Dagger 4.6 4.2 97 7 23 12.9 99.92     Rain
06:00 Legend Double Dagger 4.7 4.3 97 6 23 9.7 99.97     Rain,Fog
07:00 Legend Double Dagger 4.3 3.7 96 5 26 9.7 100.05     Rain,Fog
08:00 Legend Double Dagger 4.4 3.5 94 6 23 16.1 100.11     Rain
09:00 Legend Double Dagger 4.6 3.7 94 6 29 8.1 100.17     Rain,Fog
10:00 Legend Double Dagger 5.0 4.4 96 4 23 9.7 100.23     Rain,Fog
11:00 Legend Double Dagger 5.3 4.6 95 4 26 16.1 100.27     Rain
12:00 Legend Double Dagger 5.7 4.4 91 4 28 24.1 100.27     LegendNANA
13:00 Legend Double Dagger 6.1 4.1 87 4 23 24.1 100.30     Cloudy
14:00 Legend Double Dagger 6.5 3.8 83 5 20 24.1 100.34     LegendNANA
15:00 Legend Double Dagger 7.0 3.3 77 3 25 24.1 100.39     LegendNANA
16:00 Legend Double Dagger 6.8 3.6 80 2 19 24.1 100.46     Cloudy
17:00 Legend Double Dagger 6.8 3.3 78 2 18 24.1 100.53     LegendNANA
18:00 Legend Double Dagger 7.0 2.7 74 1 18 24.1 100.59     LegendNANA
19:00 Legend Double Dagger 7.0 1.9 70 2 21 24.1 100.66     Cloudy
20:00 Legend Double Dagger 7.0 0.9 65 2 20 24.1 100.72     LegendNANA
21:00 Legend Double Dagger 6.9 0.1 62 2 17 24.1 100.80     LegendNANA
22:00 Legend Double Dagger 6.9 -0.1 61 1 14 24.1 100.83     Cloudy
23:00 Legend Double Dagger 6.8 0.0 62 2 16 24.1 100.87     LegendNANA

Notes on Data Quality.

Legend

  • E = Estimated
  • M = Missing
  • NA = Not Available
  • ‡ = Partner data that is not subject to review by the National Climate Archives
Date modified: